Regional Weather Roundup
Issued by NWS Portland, ME

Current Version | Previous Version | Text Only | Print | Product List | Glossary Off
Versions: 1 2 3 4 5 6 7 8 9 10 11 12 13 14 15 16 17 18 19 20 21 22 23 24 25 26 27 28 29 30 31 32 33 34 35 36 37 38 39 40 41 42 43 44 45 46 47 48 49 50
000 ASUS41 KGYX 251710 RWRGYX WEATHER ROUNDUP FOR MAINE AND NEW HAMPSHIRE NATIONAL WEATHER SERVICE GRAY ME 100 PM EDT TUE APR 25 2017 MEZ002-005-006-010-012-015-018-020-021-024-026-027-029-251800- MAINE CITY SKY/WX TMP DP RH WIND PRES REMARKS PORTLAND LGT RAIN 46 41 82 E14 30.38S SANFORD CLOUDY 45 42 89 NE16 30.34F BAR HARBOR CLOUDY 49 29 46 E6 30.43F WISCASSET CLOUDY 50 36 58 E9 30.40F ROCKLAND PTSUNNY 47 34 60 NE14 30.40F FRYEBURG LGT RAIN 46 42 86 N6 30.38S LEWISTONAUBURN LGT RAIN 50 41 71 E8 30.37F AUGUSTA CLOUDY 46 37 71 E6 30.39F WATERVILLE LGT RAIN 51 32 48 CALM 30.37F BANGOR PTSUNNY 57 29 34 SE12G18 30.40F GREENVILLE N/A 48 26 42 SE10G22 30.34F MILLINOCKET CLOUDY 54 25 32 E8 30.40F HOULTON SUNNY 51 19 28 MISG 30.40F PRESQUE ISLE SUNNY 48 18 30 SE7 30.41F FRENCHVILLE SUNNY 43 12 28 S12 30.39F CARIBOU SUNNY 47 18 31 S6 30.40F $$ NHZ002-005-008-009-011-012-014-251800- NEW HAMPSHIRE CITY SKY/WX TMP DP RH WIND PRES REMARKS PORTSMOUTH CLOUDY 46 41 80 NE15 30.31F ROCHESTER CLOUDY 46 41 82 NE10G17 30.32F NASHUA CLOUDY 50 42 74 NE13G18 30.28F MANCHESTER CLOUDY 50 39 66 NE8 30.28F CONCORD CLOUDY 49 43 80 NE8 30.31F LACONIA CLOUDY 43 40 89 NE10 30.33F PLYMOUTH LGT RAIN 47 42 84 E5 30.31F BERLIN LGT RAIN 47 38 71 SE9 30.33R WHITEFIELD LGT RAIN 49 41 74 S5 30.28F JAFFREY CLOUDY 48 43 82 VRB3 30.25F KEENE CLOUDY 50 43 76 NE13 30.25F LEBANON LGT RAIN 49 43 80 S5 30.28F MT WASHINGTON SLEET 30 30 100 SE41 N/A VSB 1/4 WCI 13 $$ VTZ005-007-008-251800- VERMONT CITY SKY/WX TMP DP RH WIND PRES REMARKS ST JOHNSBURY N/A 53 43 68 MISG 30.26S MONTPELIER LGT RAIN 50 42 74 SE6 30.30F BURLINGTON CLOUDY 58 36 43 SE21G31 30.22S $$ MAZ007-012-024-CTZ003-RIZ002-NYZ038-NYZ072-251800- SOUTHERN NEW ENGLAND AND NY CITY SKY/WX TMP DP RH WIND PRES REMARKS BOSTON LGT RAIN 48 43 82 NE20G25 30.26F WORCESTER CLOUDY 47 41 80 NE17G24 30.21F NANTUCKET CLOUDY 51 49 92 E23G33 30.15F FOG PROVIDENCE RAIN 52 51 97 NE18 30.19F FOG HARTFORD CLOUDY 54 50 86 N14 30.17F ALBANY CLOUDY 50 45 83 N7 30.18F NEW YORK CITY CLOUDY 57 51 80 E24G30 30.06F $$ ANZ081-ANZ082-ANZ150-NHZ014-MEZ023>029-251800- COASTAL MARINE OBSERVATIONS STATION/POSITION TIME TEMP WIND PRES WAVE AIR SEA DIR/SP/G HT/PER (UTC) (F) (DEG/KT/KT) (MB) (FT/S) MOUNT DESERT ROC 1700 40 1029.3F MATINICUS ROCK 1600 42 70/ 21/ 23 1028.5F ISLE OF SHOALS 1600 43 30/ 21/ 24 1026.4F JEFFREYS LEDGE 1606 44 N/A 4/ 4 CASHES LEDGE BUO 1650 44 43 1026.9F 4/ 9 GEORGES BANK BUO 1550 48 42 1025.1 5/13 $$ .............KEY.............. WCI - WIND CHILL TC - TEMPERATURE IN CELSIUS VSB - VISIBILITY IN MILES HX - HEAT INDEX FAIR- INDICATES FEW OR NO CLOUDS BELOW 12,000 FT, WITH NO SIGNIFICANT WEATHER AND/OR OBSTRUCTIONS TO VISIBILITY.

USA.gov is the U.S. government's official web portal to all federal, state and local government web resources and services.